2022-058J (52793 NORAD) Tracking and Keplerian Element Data

This shows tracking and keplerian element data for the satellite.

Feedback or suggestion? Click here.




ElementValue
Catalog52793
Name2022-058J
Epoch Orbit1414
Epoch Day248.05369342
Epoch Year2022
RAAN178.2282
Inclination50.0005
Eccentricity0.0016545
Argument of Perigee309.851
Mean Anonmoly50.097
Mean Motion14.87779724
Decay Rate1.956E-05
L11 52793U 22058J 22248.05369342 .00001956 00000+0 23725-3 0 9995
L22 52793 50.0005 178.2282 0016545 309.8510 50.0970 14.87779724 14142

Live tracking and technical data element details for 2022-058J (NORAD 52793). 2022-058J can be tracked NOW for your location showing map with azimuth and elevation plus other details from your city location.

Track the satellite on the map from your city or location and see movement details for azimuth, elevation, latitude, longitude, range, height, and movement on the map or in text.







IsCatalogInMostPopularTable: catalog: 52793, numindb: 7
Update: records affected: 1



GetName: 52793 2022-058J

Hit Count: updated at: Sun, 25 Sep 2022 07:16:16 GMT